Location: *
(49.4547°N, 7.9131°E)
Time: 22:39:21
(UTC+00:00)

ARGOS - Pass Details

Date: 22 September 2019
Orbit: 821 x 834 km, 98.5° (Epoch: 21 October)

Event Time Altitude Azimuth Distance (km) Brightness Sun altitude
Exits shadow 19:39:17 21° 178° (S) 1,772 4.6 -21.5°
Maximum altitude 19:42:55 68° 258° (WSW) 888 3.4 -22.0°
Drops below altitude 10° 19:48:19 10° 341° (NNW) 2,444 6.2 -22.8°
Sets 19:50:43 0° 344° (NNW) 3,384 7.0 -23.1°
